Theta_e
317 315 321 338 341 341 341 341 340 340 339 338 338 338 338 337 336 335 336 336 336 335 334 333 333 332 332 332 330 330 329 329 328 329 327 327 327 326 329 329 328 329 329 329 329 329 331 332 333 333 332 330 330 331 331 331 331 332 333 334 333 333 333 334 333 333 334 335 337 338 336 337 338 338 337 338 338 336 334 334 335 332 332 332 337
318 316 322 331 341 341 341 341 340 340 339 338 338 338 337 336 336 335 335 336 336 336 333 334 334 333 332 332 331 330 329 328 329 328 328 327 327 328 327 328 329 328 329 329 330 330 330 331 334 332 330 330 330 330 331 332 332 333 333 333 333 333 333 333 334 334 334 335 335 335 336 336 335 335 335 336 336 335 334 334 335 333 330 336 337
315 317 323 330 341 341 341 340 340 340 339 338 337 338 337 337 336 335 336 335 336 335 333 334 334 333 333 331 331 330 329 328 327 326 328 328 328 328 329 327 326 329 329 329 328 330 330 333 331 331 331 329 330 331 332 333 332 332 332 333 332 333 334 334 334 334 335 335 334 334 333 331 331 331 332 333 335 335 334 334 335 335 331 338 338
316 317 324 331 341 341 340 339 340 340 339 338 338 337 336 336 336 336 335 336 336 335 334 334 333 333 333 332 331 331 329 329 328 328 327 327 328 328 328 328 328 329 329 327 329 328 330 332 329 330 330 331 331 331 332 332 332 332 333 333 333 333 334 335 335 335 334 333 333 333 327 320 321 327 331 333 334 335 334 334 334 334 337 338 338
315 319 325 329 336 338 340 339 339 340 339 338 337 337 336 336 336 335 335 335 335 335 334 334 332 333 332 332 331 330 329 328 328 328 328 328 328 328 328 328 328 328 328 327 328 329 330 331 329 329 330 330 332 331 332 332 333 333 332 333 333 334 335 335 334 333 332 332 332 330 320 319 318 324 330 332 334 334 333 333 333 334 336 336 339
315 321 325 328 333 334 339 339 340 339 339 337 337 336 336 336 335 335 335 335 335 335 334 334 333 333 332 331 331 330 330 328 328 328 328 328 328 328 327 328 327 327 327 328 328 328 329 328 329 329 330 330 331 331 332 333 332 332 332 333 333 334 334 333 333 331 331 331 330 322 319 318 318 320 328 332 334 333 333 333 334 337 338 339 341
315 321 325 327 332 333 338 338 338 339 338 338 337 336 336 336 335 334 335 335 335 335 334 334 333 333 332 332 331 330 330 329 329 328 327 327 328 327 327 326 326 326 326 328 328 328 329 328 328 328 330 330 331 332 332 332 332 332 333 333 334 334 333 332 332 330 330 329 320 319 318 318 318 318 327 331 334 335 334 336 337 338 339 342 342
315 320 324 326 328 334 339 339 338 338 338 337 337 336 336 335 335 334 335 335 335 335 334 334 332 332 332 332 331 331 330 329 328 328 328 328 328 327 327 325 326 326 326 327 328 328 328 327 328 329 330 331 331 332 333 333 332 332 333 333 334 333 333 332 330 329 330 322 318 318 318 318 318 318 326 331 334 335 335 336 338 339 340 340 339
316 319 323 326 326 336 339 338 339 338 338 338 337 336 335 335 335 334 334 334 334 335 334 333 332 332 332 332 331 331 330 329 329 328 328 328 327 327 327 326 325 326 327 327 328 327 327 328 329 329 330 330 332 332 332 332 332 332 332 333 333 333 332 331 329 329 323 318 317 317 317 317 318 319 325 330 332 334 336 336 337 339 339 338 338
316 318 323 325 326 336 338 338 338 338 338 338 337 336 334 334 334 334 334 333 333 333 333 332 332 332 332 331 331 330 330 329 329 329 328 328 328 327 326 326 325 326 326 327 328 327 327 327 328 329 330 331 333 332 331 331 331 332 332 333 333 332 330 329 328 324 318 316 315 315 316 322 319 318 320 329 333 335 336 335 336 336 336 336 337
315 318 323 324 325 335 338 337 338 338 339 339 337 336 335 334 334 333 334 333 333 333 333 332 332 332 332 331 331 331 330 329 329 329 329 328 328 327 326 325 326 326 325 326 328 327 326 327 328 329 330 331 332 331 331 331 331 332 332 332 331 329 328 326 325 316 315 314 313 313 316 320 316 314 322 330 334 336 337 336 336 336 338 338 340
316 317 322 324 328 335 337 338 337 337 338 339 337 336 336 335 334 333 333 333 333 333 332 332 332 332 332 331 331 330 330 329 329 329 328 328 328 327 326 325 325 325 325 326 327 327 326 327 328 329 331 331 331 330 330 331 331 332 332 330 328 327 326 325 320 315 312 312 312 314 313 313 313 315 326 331 335 338 340 337 338 338 338 338 337
316 318 321 323 325 334 336 338 337 337 338 337 337 336 335 335 334 333 332 332 331 332 332 332 332 332 332 331 331 330 330 330 329 329 328 327 327 326 325 324 324 323 324 326 327 327 327 327 327 329 330 330 331 330 330 330 331 331 329 327 326 325 324 323 316 313 311 310 311 312 312 313 313 321 328 334 338 338 339 338 337 338 337 337 336
315 317 319 322 324 330 336 337 338 338 338 338 337 336 335 334 334 333 332 332 332 332 331 332 331 332 332 332 331 330 330 330 329 329 327 326 326 325 324 322 322 322 322 324 326 326 326 326 327 328 331 330 330 330 330 330 330 329 327 326 324 323 322 320 318 311 310 310 312 312 312 314 313 324 331 336 340 339 340 336 337 337 336 336 335
315 316 318 320 323 326 332 336 337 337 338 338 338 337 335 334 334 333 332 332 332 332 331 331 331 332 331 331 331 330 330 329 329 328 326 325 325 325 322 321 321 320 320 321 324 326 326 326 327 329 329 330 329 329 329 328 328 327 325 324 323 322 321 315 312 309 309 311 310 312 312 313 320 327 334 338 338 337 337 335 336 336 335 335 335
313 315 316 319 319 322 328 332 335 336 336 336 336 337 336 335 334 333 332 332 331 331 332 331 330 331 330 331 330 330 330 329 328 327 326 325 325 323 319 319 319 318 318 319 322 325 326 326 327 328 329 329 330 330 328 327 326 325 323 322 322 321 320 318 310 308 308 308 310 312 312 313 322 331 336 338 338 340 336 336 335 335 335 334 334
313 314 316 317 318 321 325 329 332 335 334 334 335 335 336 335 335 333 332 332 331 331 331 331 330 330 330 329 329 329 329 329 328 326 326 324 324 321 319 318 318 317 318 319 320 322 325 327 327 327 328 329 330 329 327 326 325 323 322 321 321 320 319 317 309 308 308 310 312 311 313 314 324 333 336 339 337 337 336 335 335 334 334 333 333
311 313 315 316 317 320 323 325 329 331 330 332 333 334 335 334 334 333 333 332 331 330 330 330 330 330 330 329 328 328 328 328 328 326 325 324 323 321 319 318 317 318 319 320 320 321 324 326 327 326 327 329 329 328 326 324 323 321 321 320 320 318 317 316 308 308 308 312 309 313 313 319 330 333 337 338 338 337 337 335 334 334 333 333 332
308 311 313 314 317 318 321 323 326 328 328 327 326 330 333 333 332 332 332 332 331 331 331 330 330 330 329 329 328 329 327 327 327 326 324 324 323 321 319 318 317 319 319 320 320 320 322 325 326 326 326 328 328 327 324 323 322 320 320 319 318 317 316 313 309 307 309 309 310 311 312 325 331 334 337 338 339 338 336 335 333 333 333 332 331
307 310 311 313 316 318 319 322 324 326 326 325 325 324 331 331 331 331 330 331 330 330 329 329 328 327 327 327 326 324 326 323 327 322 324 324 323 320 320 318 318 317 318 318 319 318 320 324 325 325 326 328 328 324 322 321 320 319 318 317 316 315 309 309 308 308 310 311 313 310 317 327 331 334 337 340 340 339 336 334 333 333 332 332 331
306 307 311 312 313 316 318 320 322 324 325 325 323 323 325 330 329 330 329 329 329 328 328 327 326 325 325 324 324 320 313 312 320 312 323 314 321 321 319 318 318 318 317 317 317 317 318 322 324 325 325 326 324 321 319 319 318 318 317 316 314 307 308 308 309 310 311 311 313 311 321 327 331 334 337 338 336 336 336 334 333 333 332 331 331
306 306 308 311 313 315 317 319 320 322 323 324 323 322 322 328 325 324 326 327 327 327 325 321 323 320 323 321 316 314 313 309 309 319 311 311 313 319 319 318 318 318 317 317 317 317 318 321 323 324 325 327 321 308 308 314 315 316 315 314 307 306 307 309 310 310 312 311 313 314 322 326 330 334 336 340 338 337 338 334 333 332 332 332 331
303 305 307 310 313 315 316 317 319 320 321 322 322 320 320 322 323 322 322 326 323 323 320 320 317 316 316 314 313 310 309 308 308 311 310 315 309 316 318 318 318 318 317 317 317 317 318 320 323 324 323 319 309 304 303 302 302 313 312 307 305 306 307 310 311 311 311 312 312 317 321 326 329 333 336 339 337 337 337 334 333 333 332 331 331
304 305 307 308 312 314 315 317 318 318 320 321 320 320 320 320 321 321 321 321 320 320 318 317 315 314 314 312 311 308 308 308 315 317 317 307 306 314 315 316 317 317 318 318 318 316 315 316 317 318 314 310 307 304 303 302 302 302 305 304 305 305 307 309 311 310 311 312 312 317 321 324 328 332 335 338 339 338 336 335 334 333 332 331 331
303 303 305 307 309 313 315 316 317 317 318 319 319 320 319 319 320 319 319 319 318 318 317 316 314 313 312 311 309 307 306 306 305 306 305 301 300 299 300 300 303 302 312 302 301 301 303 300 301 307 303 305 304 303 302 301 302 303 305 305 305 305 306 308 310 310 310 311 312 316 320 323 327 331 334 337 338 337 335 335 335 333 332 331 330
301 303 305 306 308 312 315 316 316 317 318 319 319 319 319 319 319 320 318 318 318 317 316 315 313 312 311 310 309 308 306 305 302 302 301 299 299 298 298 298 299 300 304 300 298 298 298 300 302 303 304 303 304 302 304 305 302 302 304 304 305 305 304 307 309 309 310 310 311 315 317 321 325 330 333 335 338 337 335 335 336 335 332 330 330
302 304 304 306 307 309 312 314 315 316 317 318 318 317 318 319 319 319 318 318 317 316 316 314 313 312 310 309 309 307 305 304 303 301 301 298 300 297 297 297 297 298 299 299 298 297 298 300 302 303 302 303 303 301 301 301 300 301 303 303 303 303 303 305 309 309 309 310 311 314 316 319 323 327 330 334 336 338 336 335 335 335 333 332 330
300 302 303 304 306 307 311 313 315 315 316 317 317 317 317 317 318 318 319 318 317 317 317 315 313 312 310 309 310 308 306 304 303 301 300 296 300 298 297 296 296 298 298 298 297 298 299 301 302 304 303 302 303 300 300 300 300 299 301 302 302 303 302 304 308 308 309 309 310 312 314 316 320 325 328 331 334 336 335 336 336 335 335 333 332
300 302 303 302 304 307 309 311 313 314 316 316 316 317 316 316 316 317 318 318 317 318 317 315 313 312 310 309 309 307 305 305 303 302 299 300 298 298 296 297 296 298 297 297 298 299 298 300 302 302 301 303 300 299 300 299 298 298 299 300 301 302 302 303 306 308 308 309 309 310 312 314 318 323 327 329 332 335 336 337 336 337 335 334 334
301 301 301 302 303 305 307 310 312 314 315 314 315 315 315 315 315 316 317 317 317 317 315 314 314 311 310 309 309 309 307 306 304 300 300 300 297 296 297 297 297 297 297 298 299 298 299 299 301 301 302 301 301 301 299 298 297 297 299 298 301 301 302 303 305 306 307 308 309 308 311 313 315 320 324 327 329 332 336 336 336 337 336 335 335
301 300 301 302 303 303 305 308 311 313 313 313 314 314 314 314 315 315 315 316 317 316 315 315 313 312 311 309 308 309 308 306 304 302 300 299 298 297 297 297 296 296 298 299 297 299 299 301 304 303 302 301 298 298 298 297 296 297 297 297 299 300 302 304 305 305 306 307 307 307 307 311 313 316 320 324 325 329 333 335 335 337 336 337 336
299 300 302 302 301 302 304 307 309 311 312 312 313 313 312 313 313 314 314 315 315 315 315 315 313 313 311 309 308 308 308 306 305 302 301 299 298 297 297 297 298 297 297 297 296 298 299 301 301 300 300 300 298 296 297 297 295 295 295 296 298 302 304 304 304 305 306 305 305 305 306 307 310 314 317 320 323 326 330 333 334 335 336 336 337
300 301 302 301 300 301 303 304 307 309 310 311 311 312 312 312 312 312 313 314 314 314 314 314 314 312 311 309 308 308 308 307 304 304 304 299 298 298 297 298 299 298 296 296 296 297 299 301 301 300 299 298 298 296 297 296 295 295 294 296 297 301 305 304 304 304 304 305 305 305 304 306 308 311 314 317 319 323 327 330 334 335 337 337 336
300 299 299 300 302 302 303 303 305 307 309 310 310 310 310 311 311 311 311 312 313 313 313 313 313 312 311 309 308 307 308 307 305 302 302 300 299 298 298 298 297 296 296 296 298 300 301 301 300 300 302 298 296 295 295 295 294 294 294 295 295 299 303 303 303 303 304 304 304 303 304 305 307 308 309 314 316 318 323 327 331 334 336 336 336
299 297 298 300 301 301 302 302 304 305 308 308 309 309 309 309 309 309 309 311 311 312 312 312 312 311 310 309 308 307 307 306 305 304 301 300 299 298 297 298 298 297 296 297 299 301 302 301 301 299 295 296 295 296 294 293 293 294 293 295 294 297 303 302 302 302 303 304 303 302 304 305 306 307 308 309 312 314 318 323 326 329 333 335 336
297 298 298 299 299 299 301 301 302 303 305 307 308 309 309 308 308 309 308 308 310 310 311 311 311 311 310 309 308 308 307 306 305 304 302 300 300 298 298 298 297 297 297 296 299 302 300 301 299 300 298 294 295 293 293 293 293 293 292 293 293 296 301 302 301 301 302 303 302 302 303 305 305 306 307 308 309 311 317 319 322 325 327 331 333
296 296 296 296 297 297 301 301 301 302 303 305 307 307 307 307 306 307 307 307 308 309 309 309 309 309 309 309 308 308 307 306 305 304 304 301 299 299 297 298 297 297 297 296 299 302 302 301 298 298 299 296 294 293 293 292 292 292 291 291 291 295 298 299 300 300 300 301 302 301 302 303 305 306 306 307 308 309 313 316 318 320 321 325 330
295 296 295 296 297 297 299 301 301 302 303 304 305 305 305 305 305 305 305 306 306 307 307 307 308 309 308 308 307 307 307 305 304 303 303 302 300 299 298 297 297 297 297 297 299 300 301 303 299 296 296 297 294 295 292 292 292 292 290 291 291 292 293 297 300 300 298 299 301 301 301 301 304 305 305 306 306 308 309 312 316 316 317 320 324
294 294 294 295 295 296 298 300 301 300 301 302 302 302 301 300 300 303 303 303 304 304 306 306 307 307 307 307 306 307 307 305 304 303 303 301 299 298 298 297 298 297 297 297 298 299 301 300 301 295 293 294 295 295 294 293 291 291 292 290 290 290 291 294 297 297 297 298 299 301 301 301 302 303 304 304 305 306 308 309 310 310 311 315 319
292 292 293 293 294 295 297 298 300 300 299 299 301 300 300 302 302 298 299 301 303 303 303 306 305 306 306 306 305 305 306 305 303 303 303 301 299 298 298 296 297 297 297 297 296 298 301 300 299 297 294 293 293 293 293 293 289 289 291 291 289 289 290 293 291 293 295 296 297 299 299 300 299 300 302 302 304 305 306 307 309 310 310 311 315
289 289 291 292 294 296 297 298 299 299 300 299 300 300 299 298 297 301 302 302 302 302 302 303 305 306 305 305 304 305 305 304 303 302 302 302 300 297 297 296 297 298 298 298 297 298 301 302 300 296 296 293 292 291 291 292 293 294 289 289 290 287 291 292 289 290 291 293 294 297 298 299 297 297 300 301 304 303 304 304 307 308 308 308 312
294 289 291 292 293 294 297 298 298 299 300 300 301 301 301 302 301 301 302 302 301 301 301 302 304 305 304 304 304 304 304 304 303 302 302 301 299 297 297 297 296 297 298 298 295 298 299 299 299 296 295 296 294 293 293 294 292 291 291 287 286 287 289 290 289 289 289 292 292 293 296 295 295 295 297 300 302 302 302 303 305 306 307 307 308
291 291 290 291 292 294 296 297 299 299 299 300 300 300 300 300 301 298 302 299 299 302 302 302 303 303 304 304 304 304 303 303 302 302 301 300 299 298 298 297 297 298 297 296 295 295 298 300 300 302 295 292 291 292 293 292 290 286 287 288 285 287 288 289 288 288 288 289 290 291 294 293 293 293 295 298 300 299 301 301 303 304 305 305 305
293 293 292 292 293 295 295 297 299 299 299 300 301 299 299 297 296 298 299 298 298 298 298 298 299 300 301 302 302 302 303 303 302 301 301 300 299 299 298 297 297 298 298 297 295 295 297 299 300 300 299 295 292 294 293 289 288 291 292 288 285 286 288 287 283 287 285 287 289 289 290 291 291 292 293 295 297 297 298 300 301 303 303 304 303
292 292 293 294 296 295 296 298 299 299 299 300 300 299 299 297 297 297 297 296 297 297 296 295 299 300 301 299 301 301 301 302 301 301 301 300 299 299 298 298 297 297 298 297 296 296 297 299 300 301 300 301 295 291 293 291 289 290 290 287 287 288 287 285 283 286 288 292 291 287 289 289 290 291 291 294 295 297 297 298 298 300 301 302 301
294 293 291 293 294 295 296 297 298 298 299 299 299 299 299 299 298 298 296 297 295 296 298 299 297 298 299 298 298 300 301 302 301 301 301 300 299 298 298 297 297 297 298 298 297 295 296 298 300 302 300 299 299 292 293 291 292 291 287 290 291 289 289 287 287 289 284 286 286 286 287 286 286 288 290 292 292 294 295 296 297 298 299 300 300
295 293 291 291 293 294 295 297 298 298 298 299 299 300 298 298 299 299 299 299 298 297 296 297 298 298 299 299 300 300 301 302 301 301 301 300 299 298 298 298 298 297 298 297 296 296 297 299 300 301 302 300 297 296 296 295 291 291 290 289 290 290 288 289 289 285 288 287 286 287 292 287 286 287 290 290 290 290 293 294 296 297 298 299 299
294 291 291 291 292 294 294 296 297 299 298 299 298 300 299 298 298 298 299 298 298 298 297 297 298 298 298 298 299 299 300 301 300 300 300 300 299 298 298 298 297 297 298 297 297 296 297 297 300 301 300 301 300 301 296 293 296 294 292 291 290 286 287 288 285 291 287 287 288 284 285 287 286 288 288 289 290 289 289 291 292 295 296 299 298
292 293 292 292 291 292 294 294 295 296 297 298 299 299 299 298 298 298 297 297 296 295 296 296 297 297 297 295 297 298 298 298 299 299 299 299 300 299 297 297 297 297 298 297 296 296 297 298 298 299 299 299 300 300 297 296 295 295 291 290 289 290 288 286 286 285 288 288 286 285 287 283 287 288 288 286 286 287 288 288 289 292 294 297 297
290 291 290 289 289 290 293 293 294 294 296 296 298 298 297 298 297 297 297 296 295 292 295 296 296 296 297 296 296 297 297 297 298 298 299 299 299 299 298 297 297 297 298 297 296 296 296 298 299 300 300 299 298 299 300 298 296 294 295 293 293 289 290 290 289 288 287 288 289 286 282 286 289 287 283 286 287 287 287 287 288 289 291 294 295
289 289 290 289 289 291 292 293 293 293 294 296 297 297 297 297 297 297 297 296 295 295 294 294 294 294 296 295 296 296 297 298 297 298 299 299 299 298 298 297 297 298 298 297 296 296 296 297 298 299 299 300 299 298 297 294 296 295 293 294 295 295 294 293 292 288 290 288 289 288 284 283 285 286 287 285 287 288 287 286 287 289 289 292 293
Wind_Speed
10 7 8 15 21 20 19 19 18 18 17 17 16 16 15 15 14 14 14 14 13 12 12 11 10 10 9 8 7 6 6 5 4 4 2 3 2 2 3 1 1 2 3 4 4 4 5 6 6 7 8 7 8 9 10 8 9 11 12 12 12 13 13 14 14 14 15 16 17 17 18 18 19 18 19 20 21 22 21 20 17 12 11 9 18
12 9 9 10 21 20 19 19 19 18 18 18 17 16 16 16 15 14 14 14 13 12 12 11 11 10 10 8 8 7 6 6 5 3 3 3 2 3 2 2 2 2 4 4 4 4 5 6 7 7 7 7 7 7 9 9 10 11 12 12 12 13 13 14 14 14 15 16 17 17 17 15 15 18 20 21 21 21 19 19 19 13 6 14 20
5 9 9 12 20 20 19 19 19 19 19 18 17 17 17 16 15 15 14 14 13 13 12 11 11 10 10 9 8 8 7 5 5 5 4 4 3 3 2 2 2 3 3 3 3 5 6 6 6 7 7 6 7 9 10 11 11 11 11 11 12 12 12 13 15 15 15 16 16 17 14 13 16 17 19 19 19 19 20 20 19 19 10 20 20
10 10 8 11 20 19 19 19 19 18 18 17 17 16 16 16 15 15 14 14 13 13 12 12 11 11 10 9 9 7 6 5 5 4 4 3 3 3 2 1 2 2 3 3 4 5 6 6 5 8 8 8 8 8 9 10 11 11 11 11 11 12 13 14 15 15 15 15 15 15 5 6 10 15 17 18 19 20 21 20 20 21 22 22 24
8 8 9 10 12 17 20 20 19 19 18 17 16 16 16 16 15 14 14 14 13 13 12 12 11 11 10 9 8 6 6 5 5 5 4 3 3 3 3 2 2 2 2 3 5 5 6 5 5 7 7 7 9 9 10 11 11 11 11 11 12 13 14 14 15 15 16 16 17 9 5 6 7 12 17 18 19 20 20 20 21 22 23 24 24
7 7 9 9 8 12 20 19 18 19 18 17 17 16 15 15 15 14 14 14 13 13 12 12 11 11 10 9 8 7 6 6 5 4 4 4 3 3 2 2 1 2 2 4 4 4 5 5 6 7 7 8 8 9 10 11 11 11 10 11 12 13 13 14 15 16 16 18 12 5 6 7 6 8 17 19 19 21 20 21 23 23 24 24 23
8 7 8 9 7 10 19 19 19 19 18 18 17 16 15 15 15 14 14 14 14 13 13 12 12 11 10 9 9 7 7 6 6 5 5 4 3 3 3 2 2 2 3 4 5 4 4 5 6 6 7 8 8 10 10 10 10 10 10 12 12 13 14 14 15 17 17 11 6 6 6 7 7 6 16 19 20 21 22 23 24 23 23 23 24
5 6 7 8 5 12 18 19 18 19 18 18 17 16 16 15 15 15 14 14 14 13 13 12 12 11 10 9 9 8 8 7 6 6 5 5 4 3 3 3 3 3 3 3 5 4 5 5 6 7 7 8 9 9 10 10 10 10 11 12 13 14 14 14 15 16 15 7 6 6 6 7 8 7 15 19 21 21 22 23 23 23 24 25 24
7 7 7 8 6 15 15 18 19 19 19 17 17 17 16 16 15 15 15 14 13 13 12 12 12 11 10 10 9 8 8 7 7 7 6 5 5 4 4 4 4 3 3 3 5 4 4 5 6 6 7 8 9 9 10 10 10 11 12 13 14 14 14 14 14 15 7 5 6 6 7 7 7 8 13 20 21 21 22 22 20 23 24 24 23
6 6 7 7 6 15 14 18 19 18 18 18 18 17 16 16 15 15 15 14 14 13 12 12 12 11 11 10 9 9 9 8 8 7 7 6 5 6 4 4 4 4 4 3 4 4 5 5 5 6 7 8 9 9 9 9 10 11 12 14 14 13 13 14 14 9 6 5 6 7 7 11 8 8 13 20 21 22 22 25 20 20 18 21 23
7 7 7 8 8 17 14 19 19 18 18 17 17 17 16 15 15 15 14 14 13 13 13 12 12 12 11 11 10 10 9 9 8 8 7 7 7 6 5 5 4 4 4 4 4 4 3 5 5 6 8 8 8 9 9 10 11 12 13 13 13 13 14 14 11 4 5 6 7 7 8 15 7 7 15 20 22 23 24 25 25 21 20 20 18
7 6 6 6 9 18 15 18 19 18 18 17 17 17 16 15 15 15 14 14 13 13 13 13 13 13 12 12 11 11 10 10 9 9 8 7 7 6 6 5 5 4 4 4 4 4 4 5 6 7 8 8 8 8 9 10 12 12 11 12 13 13 13 14 7 6 5 6 6 7 7 8 8 10 20 21 22 25 25 24 21 17 16 16 17
7 6 5 5 6 14 16 16 17 17 18 18 17 16 16 15 15 15 15 14 14 14 14 14 13 13 13 12 12 11 11 10 10 9 8 8 7 6 5 5 4 4 4 4 4 5 4 4 5 7 8 8 8 8 10 11 11 11 11 11 12 12 12 13 5 6 6 5 6 7 8 7 8 16 20 23 25 26 25 21 16 15 15 16 16
7 6 5 5 5 10 14 14 15 16 16 16 16 16 16 16 16 15 14 14 14 15 14 14 14 13 13 13 12 11 11 10 10 9 9 8 7 6 5 5 4 4 4 4 4 4 4 4 5 6 8 7 8 8 10 10 11 11 10 11 11 12 13 8 7 5 5 6 6 7 7 8 9 19 22 25 26 25 19 16 14 14 15 15 15
7 6 5 5 5 6 12 14 13 15 14 14 14 15 17 17 16 16 15 15 15 15 15 15 14 14 13 13 13 12 11 11 10 9 8 7 7 6 5 4 4 4 4 4 4 4 4 4 5 6 7 7 7 8 9 11 10 10 10 10 11 11 12 5 5 4 5 6 6 7 7 7 15 21 25 25 26 24 17 14 13 14 14 14 14
4 5 4 5 4 5 7 12 15 14 13 13 13 14 15 16 16 16 16 15 15 15 15 15 14 14 14 13 13 12 11 11 10 10 8 7 6 5 4 4 4 4 4 4 4 4 4 5 5 5 6 7 7 7 9 10 10 9 9 10 10 11 11 8 5 4 5 6 6 6 8 8 19 24 26 28 25 20 16 14 14 13 14 13 14
4 4 5 5 5 5 6 7 10 14 13 12 12 13 14 15 15 15 16 15 15 15 15 15 14 14 14 14 13 12 12 11 11 10 7 7 6 5 4 4 5 5 5 4 4 5 5 5 5 5 6 6 7 8 9 9 9 9 9 9 10 10 10 10 4 4 5 6 6 7 7 8 18 24 26 26 25 20 15 14 14 13 13 13 13
4 5 6 5 5 5 6 6 8 9 8 10 11 13 14 14 14 14 14 14 15 15 15 15 14 14 13 13 12 12 12 11 10 10 8 8 7 6 5 5 5 6 6 5 5 5 5 5 5 4 5 7 7 8 7 7 8 8 8 9 9 10 10 10 4 5 5 6 6 7 7 13 24 25 27 26 25 22 15 14 13 12 12 12 12
4 4 5 5 6 5 6 6 7 7 8 6 5 9 14 13 14 14 14 14 13 13 13 12 11 11 11 10 9 9 11 10 10 10 9 9 7 6 5 5 5 6 6 5 5 5 5 5 4 4 5 6 7 7 7 7 7 7 8 9 9 10 10 7 4 5 5 5 5 7 7 21 23 25 27 26 25 22 15 14 12 11 11 11 12
2 3 5 5 5 6 6 7 7 8 8 6 7 6 10 13 13 13 13 13 13 12 12 11 10 10 9 9 9 7 8 8 11 7 9 9 8 5 5 5 6 6 6 6 5 5 5 5 5 4 4 6 5 6 7 7 6 7 8 8 9 9 5 5 4 5 5 6 6 6 12 22 23 24 26 25 25 22 17 12 10 10 10 11 11
3 4 5 5 6 7 8 7 8 9 8 8 7 7 7 11 11 13 13 12 11 12 11 11 9 9 8 8 8 6 5 4 6 4 7 4 5 4 6 5 6 7 7 6 5 5 6 6 5 4 4 5 7 7 7 6 6 6 7 8 8 5 5 5 5 4 5 6 6 6 19 21 23 24 25 24 24 22 16 12 10 9 9 10 11
5 5 5 5 7 7 9 9 7 9 8 8 6 6 5 9 7 7 8 10 10 10 9 6 7 5 8 7 5 5 6 4 4 5 3 3 3 4 4 5 6 6 6 6 5 6 6 6 5 4 4 7 6 4 4 5 5 6 6 7 4 4 5 4 4 5 6 6 7 9 21 22 22 23 24 25 24 23 18 13 9 8 8 9 10
5 6 7 9 8 7 8 9 10 8 8 8 7 6 6 6 6 7 6 8 7 7 6 6 5 6 6 5 4 4 5 4 4 4 3 4 3 3 3 5 6 6 6 6 6 6 6 6 4 4 5 6 3 4 3 2 2 5 5 4 4 5 5 4 4 5 6 6 5 15 19 21 22 22 23 25 23 23 17 14 9 7 8 8 9
9 9 7 4 7 9 10 9 10 9 9 8 6 6 7 6 6 6 6 6 6 6 6 6 6 6 7 5 4 4 4 4 5 6 5 3 2 2 3 4 4 5 5 4 4 5 6 6 6 5 4 2 2 4 4 1 2 2 3 3 4 4 5 4 5 5 5 6 6 18 19 21 22 22 22 24 24 24 20 16 11 8 7 7 6
7 3 3 8 10 11 8 9 9 8 10 8 8 9 7 7 6 7 6 6 6 7 7 7 7 7 7 6 5 4 4 5 4 4 4 3 2 1 1 1 1 2 3 2 2 3 2 3 2 2 2 2 3 3 3 2 1 2 3 4 4 4 4 4 4 4 5 5 7 15 19 20 21 22 23 23 24 24 21 17 13 9 8 5 5
2 5 11 9 11 12 11 9 9 10 11 10 10 8 8 8 8 8 7 6 7 7 6 7 7 7 7 6 6 6 6 5 4 4 4 3 3 2 3 1 1 3 1 2 2 2 2 2 1 1 1 2 4 3 2 1 1 2 4 3 4 4 5 4 4 5 5 5 6 14 17 19 20 22 22 22 24 23 22 19 14 12 7 5 3
9 11 9 9 9 8 10 9 10 10 12 10 7 7 9 9 8 8 8 8 7 7 8 7 7 7 7 7 7 6 6 6 5 4 5 4 4 3 3 2 3 4 1 2 3 2 2 1 0 0 1 3 3 3 2 1 1 3 3 3 4 4 5 4 4 5 5 5 6 13 16 18 19 21 22 22 22 23 21 19 17 13 8 6 4
5 10 8 9 7 11 11 10 11 11 11 10 10 9 9 8 9 8 9 9 8 9 8 8 7 8 7 7 7 7 7 6 6 6 5 4 5 4 3 3 3 4 1 2 3 3 2 1 1 2 3 3 4 3 2 1 2 2 3 3 3 4 4 4 4 5 5 5 6 9 15 16 18 20 21 22 22 24 22 20 18 15 10 6 5
10 12 9 7 10 9 10 13 12 12 11 10 11 10 8 8 8 9 10 9 9 9 9 7 8 7 7 8 7 7 6 7 7 6 5 6 4 4 4 4 3 4 2 2 3 3 2 1 1 2 3 4 4 3 1 2 2 2 3 3 3 4 4 4 4 5 5 5 5 7 14 16 17 19 20 21 21 23 24 21 19 16 14 9 7
16 10 8 12 8 9 11 14 14 14 12 10 10 9 9 10 10 11 10 9 10 9 7 8 7 8 8 8 8 8 8 8 7 6 6 6 4 4 4 4 5 3 3 3 4 3 3 1 2 3 4 4 3 1 1 2 2 2 3 3 3 4 4 4 4 5 5 5 5 6 12 15 16 18 19 21 21 22 24 23 21 17 17 11 8
10 11 13 12 9 8 10 11 13 12 9 11 10 11 9 10 11 10 8 10 9 8 8 8 7 8 8 8 8 8 8 7 7 6 6 6 5 4 5 4 4 4 4 4 2 4 3 3 4 5 5 4 3 1 1 3 2 3 3 3 4 4 4 4 4 5 5 5 5 5 8 14 16 16 17 20 21 21 22 24 22 20 18 16 11
10 14 13 10 7 11 12 13 14 12 11 12 11 10 10 11 10 9 10 10 8 9 8 8 8 8 8 9 8 8 7 7 7 6 6 6 5 6 4 4 6 3 4 4 3 2 2 1 2 3 3 4 4 2 1 3 2 2 3 3 3 4 4 4 4 5 5 5 5 6 6 8 12 16 16 17 20 21 21 23 24 22 17 16 15
10 14 14 8 11 11 12 13 12 11 13 13 12 12 11 9 9 10 10 9 9 8 9 9 9 8 8 9 8 8 7 8 7 7 7 6 6 5 5 5 5 4 3 4 3 2 3 4 3 3 4 4 3 2 2 3 3 3 2 3 3 4 4 4 4 5 5 5 5 6 6 7 8 12 16 16 18 20 21 22 23 24 21 18 17
11 8 7 11 11 8 9 7 9 12 13 12 11 10 10 9 9 8 8 8 8 9 9 8 8 8 8 8 8 8 8 7 7 6 6 6 6 6 6 6 5 4 3 3 4 4 4 4 4 5 3 4 4 1 2 2 2 1 2 3 3 3 3 3 4 5 4 5 5 5 6 6 7 7 8 14 16 17 20 21 21 23 24 21 19
9 7 11 16 10 10 7 7 10 12 12 12 12 11 10 10 9 9 9 9 9 9 8 8 8 8 8 8 9 9 8 8 7 8 7 6 6 6 6 6 5 4 4 4 5 4 5 5 5 5 3 3 3 2 2 2 1 2 3 3 3 4 3 3 4 4 5 5 5 5 6 6 5 6 7 7 11 16 18 20 20 21 23 22 19
11 13 11 9 9 9 9 10 9 12 12 14 13 12 11 10 9 8 8 8 8 8 8 8 8 7 8 8 9 9 9 8 8 7 7 7 7 6 7 5 5 5 5 4 4 5 5 5 4 6 5 2 3 2 1 2 1 1 2 3 3 3 4 4 4 5 4 4 5 5 5 6 6 7 7 7 7 10 19 19 20 20 21 21 19
11 12 11 8 9 8 10 11 12 14 14 13 11 9 8 8 9 8 8 8 9 9 7 7 7 8 8 8 9 9 9 9 8 8 8 7 7 6 6 6 5 6 5 5 6 6 5 5 4 2 4 5 4 3 2 2 1 1 2 2 2 3 3 4 4 5 5 4 5 5 6 6 6 7 6 7 7 7 13 18 17 18 19 19 20
11 11 10 11 12 9 9 11 11 10 10 11 10 9 8 7 6 7 6 8 8 7 6 7 8 8 8 8 9 9 9 9 9 8 8 7 7 7 6 6 6 6 6 5 6 5 5 6 5 1 3 5 5 5 3 1 1 1 2 2 3 3 2 4 4 4 4 4 5 6 5 5 5 6 6 6 7 7 7 12 18 17 18 19 18
9 9 9 9 7 6 7 9 9 9 8 8 6 5 5 4 4 5 6 6 6 6 7 7 8 7 8 8 9 8 8 9 9 9 8 7 7 7 7 6 6 6 6 6 5 5 5 4 6 3 2 2 5 4 5 4 2 1 1 2 2 2 3 2 3 4 3 3 3 4 4 5 5 5 7 6 6 6 8 7 8 8 10 18 16
7 7 7 6 7 6 6 6 8 8 5 5 6 6 6 7 7 4 5 6 7 7 6 7 7 8 8 8 8 8 9 9 9 9 8 8 7 7 7 6 6 7 7 6 6 6 7 5 5 5 4 3 3 3 4 4 2 1 1 3 2 2 2 2 3 3 3 3 3 3 4 4 5 5 6 6 6 6 6 7 7 7 8 11 16
6 6 6 7 8 9 7 9 7 7 9 9 8 9 8 6 3 8 9 7 8 7 7 7 8 8 9 9 9 9 9 9 9 9 9 8 7 6 7 6 6 7 7 8 7 7 7 6 6 4 6 3 1 2 2 4 3 1 2 3 4 2 2 1 3 3 3 4 2 3 4 4 5 5 5 4 6 6 6 6 6 7 7 7 9
8 6 9 9 6 5 8 7 6 7 9 10 10 10 9 11 11 11 8 8 8 9 9 8 10 9 9 9 9 9 9 9 8 8 8 8 8 7 7 8 7 7 7 6 6 6 6 5 6 3 0 4 4 5 5 4 0 1 1 4 3 4 1 1 2 2 3 3 3 2 3 3 5 5 4 4 5 6 6 6 6 6 7 7 7
3 6 5 4 5 7 6 6 7 9 8 9 9 10 8 6 6 4 9 5 4 4 5 6 6 8 8 9 9 9 10 9 9 9 8 8 9 8 8 7 8 7 7 6 6 7 7 8 8 7 4 0 2 3 5 3 3 2 1 1 2 4 2 1 2 3 2 2 2 2 2 3 4 4 4 4 5 6 6 5 6 6 7 7 6
1 2 3 5 4 5 5 6 7 7 8 8 8 5 5 4 3 5 4 5 4 4 3 4 5 5 7 8 7 8 9 9 9 9 8 8 9 9 7 7 8 7 9 8 7 8 7 6 7 6 6 4 2 4 4 3 4 6 1 2 1 1 4 0 3 5 2 3 1 2 2 2 3 5 4 5 5 4 4 5 7 6 6 7 6
1 4 4 5 5 7 7 8 8 9 7 7 7 7 7 5 5 6 5 5 4 5 4 4 7 8 6 7 8 7 7 8 8 9 9 10 9 8 8 8 8 8 7 8 8 9 9 8 9 7 8 7 6 3 4 4 3 0 4 2 1 1 3 2 2 3 1 1 1 2 3 2 3 3 4 4 4 4 3 7 6 7 8 8 8
0 1 3 3 4 4 5 5 5 6 8 8 9 9 9 10 9 8 7 5 6 7 10 12 10 9 9 4 4 7 8 8 8 9 9 8 9 9 8 8 8 8 8 8 7 6 7 7 9 9 8 6 6 5 4 3 4 2 0 1 1 1 1 1 1 1 3 1 3 3 3 3 1 3 3 3 4 5 3 7 6 8 8 5 5
0 0 0 1 2 4 4 5 6 6 6 7 8 8 8 8 10 11 10 11 10 7 4 4 7 7 7 9 9 8 9 10 9 9 9 8 8 8 9 9 8 8 7 7 7 8 8 8 7 7 8 6 6 7 7 6 1 3 3 1 1 0 2 0 2 1 2 1 1 1 1 1 3 3 3 2 2 3 4 4 6 6 8 6 6
0 2 1 1 2 3 4 5 4 5 5 6 8 8 10 9 8 7 7 7 8 8 7 5 5 6 8 8 7 7 8 8 8 8 8 9 8 8 8 8 8 8 8 8 9 7 6 5 7 8 6 7 8 8 6 6 9 5 6 5 1 1 1 1 1 0 1 1 2 2 1 4 4 4 3 3 2 2 4 4 5 5 6 6 6
1 0 0 1 2 2 2 3 4 4 4 6 8 7 7 8 8 7 6 4 3 3 4 4 6 6 7 5 6 6 7 6 6 8 8 8 8 9 8 8 8 8 7 7 6 7 9 9 7 7 8 7 7 6 6 8 7 6 5 4 3 3 1 1 1 1 2 0 5 1 1 3 1 4 4 2 2 2 2 3 3 4 4 5 5
1 1 1 2 3 4 4 4 4 4 4 5 6 6 5 6 6 6 6 5 4 3 5 6 6 6 7 7 6 7 7 6 6 6 7 8 8 8 8 9 9 8 7 8 7 7 7 8 9 9 7 8 6 7 8 6 7 5 5 6 6 3 1 1 1 1 0 1 4 2 1 1 2 1 2 3 4 3 2 2 3 3 3 4 4
2 3 3 3 3 4 4 4 3 3 4 5 6 7 5 5 6 6 7 7 6 6 6 5 5 5 7 6 7 7 7 7 7 7 8 9 8 8 8 8 8 8 8 8 8 8 8 8 7 6 8 9 8 7 5 4 6 6 5 7 8 8 9 7 6 4 4 2 0 5 2 3 2 4 1 3 4 4 3 2 3 3 3 3 3
Wind_Direction
229 187 184 190 180 179 180 182 183 183 184 185 185 184 185 183 182 180 177 177 174 172 169 169 174 169 171 177 170 173 182 176 185 184 177 209 204 226 244 276 288 265 297 306 323 338 317 329 343 349 354 346 340 336 337 337 335 335 344 338 336 331 330 330 328 327 327 325 322 319 318 315 314 316 313 313 309 306 305 302 301 300 298 291 290
185 193 183 190 182 181 180 183 184 185 185 186 186 185 185 185 183 181 179 180 175 175 173 172 178 173 173 179 173 178 182 184 182 176 198 204 222 226 238 229 241 274 272 305 348 312 320 337 347 356 327 345 349 339 331 337 340 341 340 337 331 331 332 332 330 329 326 323 320 320 321 323 322 314 310 309 307 306 305 303 299 300 287 287 289
161 170 182 187 182 181 182 184 185 186 187 186 187 187 187 186 184 184 182 180 177 179 175 177 178 179 178 177 178 186 181 187 184 186 205 196 219 234 219 239 261 271 295 334 313 318 305 354 355 321 347 346 341 339 339 343 340 338 335 335 335 335 334 331 331 332 332 333 329 326 331 331 319 313 309 307 307 306 304 305 303 297 288 288 284
156 170 174 186 184 181 182 185 186 187 188 187 187 187 187 188 186 185 184 182 180 179 178 178 180 182 183 180 185 184 185 182 188 190 194 206 222 218 247 274 276 301 323 323 298 318 335 350 344 332 343 349 338 341 338 336 340 340 340 339 337 332 338 344 346 342 337 330 327 327 336 319 311 306 305 307 306 305 305 304 300 295 290 288 286
162 160 169 180 183 184 184 186 187 188 188 188 189 188 189 189 188 187 184 184 185 180 180 181 183 186 183 184 187 182 190 192 198 195 209 205 216 225 215 270 286 319 319 301 300 323 345 333 329 340 339 339 334 340 338 345 343 344 345 338 334 338 343 347 346 339 330 326 320 333 311 304 302 300 303 304 304 303 302 299 296 291 286 285 284
164 162 167 177 181 183 185 188 187 188 189 189 189 190 191 190 190 188 187 186 187 184 184 183 186 190 185 186 190 186 190 196 199 206 210 210 217 217 238 247 276 305 296 297 307 330 339 339 321 339 337 336 334 339 342 345 344 344 337 334 338 341 343 341 337 333 328 321 334 327 308 302 300 297 299 303 303 302 301 296 293 289 289 290 287
163 160 165 176 181 184 186 188 189 189 189 190 190 190 192 192 192 191 190 189 188 186 186 185 189 190 187 188 188 189 193 197 199 202 211 213 217 217 238 238 258 270 280 283 293 331 318 314 331 339 333 334 338 342 345 345 341 339 334 335 337 339 336 334 335 331 327 333 329 315 306 304 299 295 298 302 301 303 304 302 296 293 295 292 291
150 160 170 175 179 187 185 188 190 190 191 191 191 192 192 194 193 194 194 193 191 188 187 189 191 192 189 194 191 192 195 199 201 205 206 210 203 217 218 235 241 247 259 270 290 298 319 323 329 341 330 335 340 345 346 344 343 334 333 334 336 334 334 333 333 331 332 330 316 308 304 300 299 295 298 302 303 304 304 301 297 299 296 294 293
167 169 168 176 181 186 188 189 191 192 192 192 192 193 194 194 194 197 197 196 194 193 190 193 193 193 192 195 193 197 199 201 203 204 204 202 208 209 214 228 229 239 246 264 276 320 305 320 328 329 331 336 338 345 347 342 334 333 334 336 332 335 338 341 339 334 340 317 312 304 301 298 297 297 301 304 305 305 303 297 296 293 293 292 289
169 173 173 172 179 186 190 190 193 194 194 194 194 195 196 197 197 198 200 198 197 196 195 195 196 197 193 200 197 199 199 201 203 203 200 203 208 204 221 216 232 228 244 252 278 299 310 319 327 328 331 338 344 346 344 336 333 331 336 335 348 356 350 346 338 343 324 315 309 305 297 308 308 305 299 304 305 305 303 297 293 290 285 287 286
170 178 178 174 177 185 191 191 195 196 195 196 197 197 198 199 200 201 201 201 200 200 198 197 196 198 197 198 199 201 201 203 204 203 202 203 201 210 210 218 221 229 239 246 272 277 309 307 324 322 333 338 344 347 336 334 332 333 336 355 358 352 348 342 341 329 316 317 314 305 304 314 309 296 299 305 306 303 301 302 301 293 291 290 293
174 178 184 178 179 185 189 192 194 196 198 199 199 199 199 199 202 203 203 203 202 202 203 201 199 199 199 200 202 203 202 203 202 203 204 203 208 209 213 223 224 234 239 250 259 281 304 301 324 323 332 340 348 338 334 335 336 341 2 359 355 350 346 341 344 324 321 320 313 306 308 311 306 297 308 308 308 304 303 308 311 319 324 323 318
176 177 182 180 182 189 189 193 193 199 199 202 201 201 201 202 203 204 204 204 205 205 204 204 202 201 201 202 204 202 203 203 203 202 203 206 208 207 220 227 238 242 248 252 258 264 273 295 309 318 326 340 342 332 337 342 354 4 1 357 351 348 346 345 340 333 324 320 310 311 309 311 304 304 306 311 308 311 317 316 325 330 328 326 322
168 178 180 179 182 195 191 195 196 201 201 204 202 202 202 204 205 205 205 205 206 208 208 206 205 204 205 205 205 205 205 205 204 203 203 206 206 207 211 223 233 246 255 252 260 267 276 297 315 311 327 338 334 333 347 356 3 3 359 352 348 350 349 348 343 334 326 319 312 310 317 312 301 305 312 312 316 324 321 329 334 330 326 325 324
167 175 178 174 182 194 195 196 201 204 205 205 203 202 203 205 205 205 206 207 208 208 209 208 207 207 207 208 208 207 207 207 207 205 203 207 207 206 209 219 226 244 255 261 261 273 284 286 297 310 328 332 329 341 0 1 1 1 356 349 350 355 353 349 345 331 325 320 313 315 317 311 307 314 317 318 322 329 328 334 332 329 329 326 327
160 169 169 179 184 192 198 200 203 206 210 208 204 203 204 204 204 205 206 208 209 210 210 209 209 210 210 210 211 210 209 209 207 208 203 204 209 201 213 222 233 251 260 264 268 270 277 280 287 306 323 328 326 336 350 355 1 0 356 352 355 357 353 354 340 330 324 318 314 324 319 312 316 321 323 320 333 327 330 333 331 331 331 329 331
141 156 171 182 186 195 200 203 205 207 210 212 207 204 206 205 204 207 207 208 210 211 211 212 211 211 212 213 213 212 213 210 210 210 198 201 202 199 214 224 237 245 256 262 262 268 269 274 286 309 319 322 326 332 343 356 4 2 359 355 357 358 352 352 339 327 325 319 326 322 319 312 319 328 322 323 335 335 330 332 333 335 333 333 336
153 160 183 184 189 197 202 206 205 210 209 214 214 206 205 206 203 205 208 207 209 210 211 212 212 212 213 214 214 215 214 213 211 211 203 197 198 208 217 227 234 245 251 256 261 261 263 270 287 306 318 319 325 338 20 14 7 6 0 357 356 354 354 351 334 329 320 325 322 323 319 318 330 332 325 327 340 340 327 330 339 337 335 337 338
155 170 184 182 196 195 204 205 208 208 208 208 211 212 208 206 203 204 205 206 208 207 208 212 212 211 211 211 206 208 216 213 213 210 210 197 200 207 212 231 244 251 260 264 266 271 268 267 280 293 303 324 320 22 35 24 12 8 2 356 354 352 346 347 338 333 322 322 324 326 315 331 335 335 329 333 340 342 334 334 343 340 341 341 336
193 189 195 206 193 194 201 206 207 208 204 202 206 209 214 208 206 204 202 202 205 204 201 208 208 205 209 205 197 200 212 215 212 213 211 198 203 188 204 227 247 262 268 273 275 276 274 271 277 292 301 311 14 47 47 28 18 9 1 356 355 351 340 335 339 334 327 332 329 323 325 336 339 337 332 334 343 344 343 339 353 345 345 344 335
243 222 206 203 204 202 203 205 209 210 206 202 203 206 211 211 209 206 202 204 204 199 197 201 200 200 204 201 193 190 198 195 212 188 200 180 184 172 198 221 243 260 274 279 281 283 277 275 279 282 297 326 55 55 48 34 18 8 359 354 357 349 335 336 335 331 338 335 332 317 338 339 342 340 335 334 345 348 350 353 357 350 350 345 341
216 231 225 208 203 207 204 204 207 212 208 204 203 202 204 211 205 204 203 203 204 198 196 192 191 189 196 193 187 186 185 183 177 169 154 155 158 177 191 221 241 258 272 282 287 289 288 284 282 289 310 36 62 70 51 20 11 7 356 358 354 339 336 332 337 341 343 339 340 324 342 343 344 342 340 335 347 356 354 348 2 352 355 346 346
249 222 226 208 208 205 202 205 207 204 206 207 203 198 199 205 204 200 199 198 196 194 188 186 184 183 189 187 183 183 176 177 174 167 162 169 174 184 204 225 241 256 270 280 288 297 305 307 307 323 29 43 59 78 71 28 347 352 347 347 345 338 333 333 345 349 346 337 324 339 344 345 346 344 343 340 348 357 2 357 354 354 348 348 352
235 218 220 203 210 210 207 206 203 199 199 208 203 197 199 200 199 196 194 192 192 191 184 182 183 184 185 183 180 175 171 171 182 177 172 163 169 202 230 238 250 269 276 303 326 326 315 323 323 4 42 60 101 85 71 21 351 331 339 351 343 336 335 337 343 347 342 339 331 343 346 348 349 347 347 344 348 359 1 359 353 346 347 345 360
226 210 206 211 206 209 203 208 200 196 201 204 202 204 195 193 197 194 193 191 189 189 186 182 183 185 184 181 176 170 167 170 177 178 172 157 165 217 277 275 303 290 293 304 301 300 338 311 346 33 31 105 106 77 78 35 342 355 355 348 340 335 336 331 339 342 336 327 333 334 348 350 351 351 350 349 347 359 7 5 2 349 349 349 3
233 194 221 216 209 205 202 203 191 200 202 200 203 198 182 199 199 197 190 193 189 190 185 184 184 187 181 179 167 170 173 170 175 185 186 169 191 225 239 241 255 252 256 266 286 289 284 287 338 44 36 95 97 92 68 89 14 355 5 351 341 340 340 330 342 345 332 328 325 335 345 352 353 351 352 353 350 356 6 10 1 351 351 358 357
222 228 221 223 211 201 204 195 198 200 206 203 197 191 201 199 196 190 190 199 190 190 193 188 187 182 181 175 174 182 178 176 182 189 198 177 202 209 228 213 225 245 231 205 265 260 255 273 31 89 121 113 92 76 77 57 34 23 360 348 344 338 339 337 344 340 329 326 321 332 344 350 354 353 355 357 354 354 7 15 9 353 0 8 28
245 239 231 226 204 205 199 193 202 199 204 197 196 198 204 194 196 192 199 197 190 200 197 193 177 183 182 182 180 178 179 181 191 189 200 176 205 204 205 203 212 234 217 176 236 263 261 242 117 106 113 108 102 83 74 49 25 36 11 351 338 342 340 340 340 334 328 325 324 334 345 344 351 355 357 1 358 351 7 13 18 9 16 21 24
239 236 229 224 219 203 192 199 201 203 202 191 198 204 195 195 191 195 202 193 199 202 195 178 184 180 183 183 178 181 182 185 190 197 173 199 200 199 196 211 200 229 178 221 203 243 255 226 144 134 128 115 104 97 90 49 33 27 27 348 336 340 337 341 339 334 327 326 331 337 342 347 345 355 358 4 1 355 2 14 19 14 15 26 29
235 239 228 229 217 201 198 200 199 202 199 185 203 197 196 195 198 201 200 191 205 196 184 187 186 177 186 188 189 184 186 187 191 181 181 202 195 200 198 208 206 203 171 217 212 201 220 146 119 129 126 127 112 119 100 73 29 17 18 357 330 331 325 334 339 333 323 330 337 342 341 347 344 348 357 5 5 1 0 8 21 19 21 20 33
238 233 233 232 211 198 206 200 205 204 190 194 199 203 192 200 202 199 193 201 195 183 191 188 185 189 188 185 190 190 183 183 183 181 190 192 192 190 208 199 209 211 185 223 186 199 187 187 177 161 151 135 117 86 122 87 37 15 4 353 326 324 330 335 334 327 329 335 343 345 342 345 342 346 348 0 6 4 4 5 16 24 27 23 29
229 235 235 231 205 207 201 203 203 197 191 199 200 202 199 203 201 193 200 201 182 189 191 189 192 191 183 186 188 190 183 185 180 180 186 189 191 193 199 186 216 201 191 212 196 185 176 153 117 114 118 119 113 82 63 95 54 7 353 350 335 328 331 337 336 329 331 338 344 351 348 342 340 349 350 354 4 7 7 6 11 24 34 26 33
231 232 235 222 217 210 206 208 198 195 195 198 199 202 202 200 196 199 201 190 189 187 192 195 192 186 184 187 188 187 187 182 185 182 186 187 187 186 195 202 206 197 192 201 161 133 117 115 92 103 100 103 103 79 71 73 55 354 357 342 341 324 328 336 336 332 337 341 352 350 349 347 342 345 353 354 2 4 8 7 11 14 26 32 31
241 228 227 227 219 212 206 198 193 196 199 200 201 200 200 200 200 200 194 186 190 190 196 192 187 184 185 186 186 188 187 184 176 184 179 181 185 189 193 203 203 192 187 166 157 153 136 128 138 117 123 122 115 90 79 60 4 342 6 342 330 316 321 329 335 324 327 348 347 354 350 350 349 344 341 353 1 360 2 8 11 13 16 28 30
241 239 216 228 216 212 191 201 194 198 198 202 200 202 200 200 195 194 192 189 188 193 192 187 186 184 178 186 186 187 188 184 181 176 183 180 184 191 195 203 188 177 176 189 162 156 150 155 147 125 107 97 101 80 95 97 52 18 338 341 335 322 316 323 329 331 341 342 352 356 350 338 329 347 345 344 355 360 1 4 11 13 13 19 31
227 235 230 229 218 209 193 200 191 197 200 202 202 201 199 197 194 193 188 186 186 192 191 189 185 177 182 186 187 186 186 184 180 175 179 185 187 191 198 191 179 164 184 169 150 158 162 150 175 150 130 130 123 75 64 103 56 12 339 341 334 343 323 327 333 328 331 336 357 355 353 353 353 350 344 349 349 356 4 4 10 15 14 9 30
229 234 228 223 224 207 196 196 195 199 202 203 200 200 191 191 193 188 185 181 187 193 190 179 177 182 184 185 185 186 185 183 181 179 180 186 188 190 192 187 170 169 173 171 171 167 157 156 166 190 156 157 146 130 88 85 72 353 335 344 345 350 336 326 320 327 326 2 356 356 356 354 348 351 353 349 350 348 2 2 6 12 15 10 10
234 231 223 216 218 204 198 200 204 201 199 197 197 193 190 182 180 181 175 183 191 188 180 174 184 187 181 188 184 184 184 182 180 180 187 186 185 185 184 178 167 165 171 166 183 161 162 159 159 136 140 135 151 152 159 120 82 21 348 347 327 353 327 319 317 325 342 357 3 351 348 337 355 354 353 350 349 352 351 359 5 8 9 10 7
236 229 223 220 217 201 191 202 198 191 192 186 177 165 152 149 145 160 176 182 183 185 174 182 187 182 186 188 181 181 182 181 181 180 185 182 181 184 180 178 167 167 167 171 163 160 161 167 159 134 81 108 160 174 160 144 99 44 343 301 318 311 305 306 314 318 340 343 346 338 340 0 356 347 358 351 350 352 355 351 353 358 356 1 2
237 232 224 214 213 203 192 195 194 182 163 146 147 153 154 167 167 154 171 192 188 183 186 186 176 186 189 184 180 181 182 181 181 181 185 182 181 183 181 170 171 164 167 170 175 171 172 168 168 151 136 73 60 124 131 123 72 49 334 310 285 272 305 327 319 317 326 339 347 338 356 349 5 350 357 346 351 356 360 355 355 356 354 353 359
247 228 217 214 207 199 176 197 188 168 161 162 167 165 167 157 162 193 198 185 186 180 183 185 190 192 186 183 179 183 183 180 181 176 186 183 182 175 173 176 171 171 175 187 180 180 177 170 159 149 151 136 111 122 155 113 104 315 342 299 307 251 249 316 307 314 322 304 327 353 352 1 358 1 349 333 355 357 354 355 358 356 359 358 355
240 211 211 213 200 182 189 187 159 172 179 177 174 178 181 185 177 188 181 176 174 180 192 194 196 191 185 182 182 183 181 181 178 179 183 180 175 177 181 179 172 180 185 176 170 169 163 155 150 139 199 159 181 175 188 119 48 178 321 323 328 320 303 329 314 300 313 321 334 349 18 7 354 347 338 338 359 2 359 354 0 359 359 1 357
258 204 205 175 181 189 193 172 173 175 183 178 168 181 186 188 180 163 176 170 199 196 191 187 178 186 191 188 186 181 177 180 178 181 178 184 181 175 185 175 177 173 168 170 166 169 173 171 172 167 176 48 121 183 182 166 159 135 139 41 327 8 330 344 321 277 297 304 328 17 4 7 340 346 336 334 1 360 358 354 0 4 359 1 357
117 135 158 174 179 190 184 172 175 179 176 183 181 170 149 117 89 114 128 126 167 156 138 136 174 174 198 195 187 178 181 181 178 176 181 184 180 183 174 175 180 178 176 171 174 178 176 175 176 179 155 165 192 189 206 185 133 139 266 202 221 93 326 332 300 283 270 287 340 331 356 343 337 348 358 7 346 331 343 358 4 0 2 1 356
181 185 174 178 183 190 186 178 173 178 176 173 164 145 128 111 98 75 93 84 68 131 144 179 189 195 186 188 192 175 177 177 177 182 183 184 184 179 175 180 174 182 176 177 178 186 184 181 178 171 182 180 191 168 200 187 204 235 135 100 31 15 224 244 355 286 344 260 282 341 323 351 356 346 349 334 329 329 332 358 359 358 353 358 5
271 238 198 190 170 183 177 174 164 168 172 173 162 156 163 159 152 144 146 169 171 164 191 196 190 191 193 161 161 182 181 184 182 185 190 181 182 181 178 172 177 177 182 185 179 163 178 180 187 180 190 196 159 150 195 220 206 177 151 124 161 167 281 270 68 285 326 212 307 304 291 307 340 330 326 331 349 340 355 330 339 328 353 348 343
271 68 113 199 179 170 174 173 172 173 168 166 162 157 157 169 177 180 178 182 187 208 193 176 176 181 165 181 187 186 187 184 187 186 187 184 181 179 178 179 178 178 180 172 176 184 182 189 180 186 192 165 140 183 191 184 135 251 187 168 132 143 144 73 278 4 355 322 311 302 276 328 326 319 303 300 319 336 337 342 330 327 321 340 3
342 40 53 107 156 177 169 174 170 169 170 161 168 172 170 176 180 187 186 190 195 194 180 179 163 161 175 183 182 190 189 190 184 186 184 183 178 181 181 180 178 181 174 184 185 182 171 182 186 191 171 178 182 189 184 164 179 212 189 201 181 65 94 84 132 204 188 300 311 320 261 287 314 279 253 269 293 308 319 338 346 336 310 343 2
3 50 344 167 145 141 147 144 161 158 163 166 171 182 177 178 181 179 191 200 176 145 150 139 155 164 172 175 183 186 186 189 182 182 184 183 183 183 181 181 181 181 181 182 186 174 178 174 180 183 187 191 194 191 154 192 192 188 129 194 169 194 85 58 95 86 163 206 281 254 299 320 295 289 310 286 278 260 272 294 306 305 317 324 347
321 124 102 109 125 129 134 147 162 161 162 168 174 180 175 164 173 183 187 182 148 121 146 159 166 169 177 181 183 177 182 183 187 184 182 189 189 185 182 184 185 179 179 186 179 176 179 183 186 186 185 191 198 187 197 183 193 185 185 154 170 151 168 282 254 148 336 202 249 278 237 356 343 290 329 338 330 287 267 277 299 305 312 307 311
58 103 94 112 125 128 138 150 169 150 159 173 171 181 179 171 182 184 185 177 174 156 151 163 158 165 177 181 182 187 178 187 182 189 191 188 190 187 184 187 183 179 182 180 184 182 185 184 181 182 188 192 192 197 206 182 180 186 190 174 187 181 187 191 202 195 190 204 327 284 291 219 210 318 288 313 297 285 276 245 255 283 278 292 304